Regional Weather Roundup
Issued by NWS State College, PA

Home | Current Version | Previous Version | Text Only | Print | Product List | Glossary On
Versions: 1 2 3 4 5 6 7 8 9 10 11 12 13 14 15 16 17 18 19 20 21 22 23 24 25 26 27 28 29 30 31 32 33 34 35 36 37 38 39 40 41 42 43 44 45 46 47 48 49 50
000
ASUS41 KCTP 290403
RWRCTP

REGIONAL WEATHER ROUNDUP
NATIONAL WEATHER SERVICE STATE COLLEGE PA
1200 AM EDT WED JUL 29 2015

Note: "fair" indicates few or no clouds below 12,000 feet with no
significant weather and/or obstructions to visibility.

* = STATION THAT DOES NOT REPORT PRECIPITATION /E.G. RAIN...SNOW...ETC/
    THUNDER OR FOG.

PAZ002>004-007>009-013>016-020>023-029>032-290500-
WESTERN PENNSYLVANIA

CITY           SKY/WX    TMP DP  RH WIND       PRES   REMARKS
ERIE           PTCLDY    75  59  57 CALM      30.00S
MEADVILLE      LGT RAIN  73  59  61 E5        30.05R
FRANKLIN*      PTCLDY    70  61  73 NE3       30.06S
NEW CASTLE     FAIR      67  67 100 CALM      30.03R
BEAVER COUNTY  NOT AVBL
BUTLER*        PTCLDY    73  61  64 SE3       30.04R
PITTSBURGH INT MOCLDY    78  63  59 E6        30.01S
PITTSBURGH     MOCLDY    77  63  61 SE5       30.01S
INDIANA*       MOCLDY    70  63  78 E5        30.07S
LATROBE        NOT AVBL
WASHINGTON CO* NOT AVBL
$$

PAZ004>006-010>012-017>019-024>028-033>037-041-042-045-046-049>053-290500-
CENTRAL PENNSYLVANIA

CITY           SKY/WX    TMP DP  RH WIND       PRES   REMARKS
BRADFORD       CLEAR     62  60  93 CALM      30.09S
DUBOIS         CLEAR     70  63  78 E3        30.06S
CLEARFIELD     CLEAR     65  61  87 N7        30.07R
JOHNSTOWN      CLEAR     72  63  73 SE7       30.08F
ALTOONA        CLEAR     66  63  90 CALM      30.06S
STATE COLLEGE  CLEAR     71  65  83 CALM      30.05R
WILLIAMSPORT   CLEAR     71  65  81 N3        30.01R
SELINSGROVE    CLEAR     66  65  96 CALM      30.02R FOG
FT INDIANTOWN  CLEAR     69  68  96 N2        30.01R
CAPITAL CITY   PTCLDY    73  65  75 SW5       30.00S
HARRISBURG     PTCLDY    76  70  82 CALM      30.00R
YORK           PTCLDY    71  68  90 CALM      30.02R
$$

PAZ038>040-043-044-047-048-054-055-060>062-067>071-290500-
EASTERN PENNSYLVANIA

CITY           SKY/WX    TMP DP  RH WIND       PRES   REMARKS
SCRANTON       CLEAR     72  64  76 E7        30.03S
MOUNT POCONO   CLEAR     64  61  90 CALM      30.09R
ALLENTOWN      CLEAR     73  68  84 CALM      30.00R
QUAKERTOWN*    CLEAR     70  68  94 SW3       30.02R
READING        CLEAR     74  66  76 CALM      30.00R
LANCASTER      CLEAR     73  68  84 CALM      30.01R
COATESVILLE    CLEAR     75  72  88 SW3       30.04R
POTTSTOWN      CLEAR     74  71  91 CALM      30.02R
BLUE BELL      CLEAR     77  73  88 W3        30.00R
DOYLESTOWN     CLEAR     74  67  78 CALM      30.00R
WILLOW GROVE   NOT AVBL
NORTH PHILA    CLEAR     79  69  71 CALM      30.01R
PHILADELPHIA   PTCLDY    80  72  76 W7        30.00R
$$



USA.gov is the U.S. government's official web portal to all federal, state and local government web resources and services.